AHY764 UBBB-UIII

Flight info

Callsign AHY764
Flight time N/A
Altitude 34996
Route BETEK N55 OGANU P574 AST L988 LAGMO B715 KUDEB A817 ABK W284 BULEV W241 BD BD4B
Aircraft A320/M-SDE2E3FGHIRWXY/LB1

Departure

Time 2026-04-30 11:02
Airport Heydar Aliyev International Airport (UBBB)

Arrival

Time N/A
Airport Irkutsk International Airport (UIII)
Time Latitude Longitude Altitude Speed Heading
2026-04-30 10:41 40.46782 50.04973 16 ft 0 kts 108°
2026-04-30 10:57 40.46779 50.04982 16 ft 7 kts 109°
2026-04-30 10:57 40.46719 50.05005 16 ft 10 kts 198°
2026-04-30 10:57 40.46648 50.04964 16 ft 11 kts 208°
2026-04-30 10:57 40.46574 50.04912 15 ft 12 kts 209°
2026-04-30 10:58 40.46514 50.04827 15 ft 13 kts 227°
2026-04-30 10:58 40.46415 50.04753 15 ft 19 kts 208°
2026-04-30 10:58 40.46277 50.04649 16 ft 25 kts 211°
2026-04-30 10:58 40.46105 50.04659 15 ft 25 kts 159°
2026-04-30 10:59 40.45931 50.04744 16 ft 27 kts 171°
2026-04-30 10:59 40.45752 50.04674 16 ft 27 kts 225°
2026-04-30 10:59 40.45674 50.04442 16 ft 27 kts 251°
2026-04-30 10:59 40.45636 50.04269 16 ft 0 kts 256°
2026-04-30 11:00 40.45635 50.04269 15 ft 0 kts 256°
2026-04-30 11:00 40.45634 50.04265 15 ft 1 kts 256°
2026-04-30 11:00 40.45628 50.04230 15 ft 5 kts 256°
2026-04-30 11:00 40.45622 50.04195 15 ft 0 kts 257°
2026-04-30 11:01 40.45620 50.04186 16 ft 1 kts 257°
2026-04-30 11:01 40.45616 50.04160 16 ft 6 kts 264°
2026-04-30 11:01 40.45639 50.04125 16 ft 0 kts 344°
2026-04-30 11:01 40.45643 50.04123 16 ft 1 kts 344°
2026-04-30 11:02 40.45807 50.04068 16 ft 62 kts 346°
2026-04-30 11:02 40.46484 50.03862 16 ft 133 kts 347°
2026-04-30 11:02 40.47481 50.03549 504 ft 149 kts 346°
2026-04-30 11:02 40.48478 50.03227 1282 ft 149 kts 346°
2026-04-30 11:03 40.49487 50.02884 1994 ft 152 kts 345°
2026-04-30 11:03 40.50545 50.02528 2517 ft 162 kts 344°
2026-04-30 11:03 40.51657 50.02106 3012 ft 175 kts 342°
2026-04-30 11:04 40.54276 50.01236 3907 ft 213 kts 346°
2026-04-30 11:04 40.55802 50.00766 4389 ft 232 kts 347°
2026-04-30 11:04 40.57443 50.00355 4906 ft 251 kts 357°
2026-04-30 11:04 40.59189 50.00901 5543 ft 266 kts 26°
2026-04-30 11:05 40.60584 50.02509 6329 ft 272 kts 53°
2026-04-30 11:05 40.61296 50.04870 7054 ft 285 kts 82°
2026-04-30 11:05 40.61182 50.07506 7727 ft 291 kts 97°
2026-04-30 11:05 40.60871 50.10162 8078 ft 292 kts 97°
2026-04-30 11:06 40.60733 50.12871 8335 ft 298 kts 78°
2026-04-30 11:06 40.61583 50.15293 9077 ft 295 kts 45°
2026-04-30 11:06 40.63174 50.16927 10012 ft 287 kts 31°
2026-04-30 11:06 40.64876 50.18364 10660 ft 296 kts 30°
2026-04-30 11:07 40.66635 50.19890 11067 ft 313 kts 32°
2026-04-30 11:07 40.68521 50.21605 11448 ft 331 kts 33°
2026-04-30 11:07 40.70436 50.23405 11874 ft 345 kts 33°
2026-04-30 11:07 40.72435 50.25322 12199 ft 361 kts 34°
2026-04-30 11:08 40.74514 50.27336 12505 ft 376 kts 34°
2026-04-30 11:08 40.76655 50.29425 13004 ft 383 kts 34°
2026-04-30 11:08 40.78832 50.31556 13596 ft 387 kts 34°
2026-04-30 11:08 40.81044 50.33724 14181 ft 391 kts 34°
2026-04-30 11:09 40.83241 50.35883 14744 ft 394 kts 34°
2026-04-30 11:09 40.85490 50.38099 15297 ft 400 kts 34°
2026-04-30 11:09 40.87730 50.40308 15980 ft 401 kts 34°
2026-04-30 11:09 40.89922 50.42474 16891 ft 395 kts 34°
2026-04-30 11:10 40.92125 50.44651 17589 ft 395 kts 34°
2026-04-30 11:10 40.94319 50.46820 18158 ft 400 kts 34°
2026-04-30 11:10 40.96566 50.49042 18732 ft 404 kts 34°
2026-04-30 11:10 40.98818 50.51271 19304 ft 407 kts 34°
2026-04-30 11:11 41.01099 50.53530 19856 ft 411 kts 34°
2026-04-30 11:11 41.03429 50.55760 20386 ft 414 kts 32°
2026-04-30 11:11 41.05861 50.57969 20911 ft 418 kts 32°
2026-04-30 11:11 41.08256 50.60127 21417 ft 422 kts 32°
2026-04-30 11:12 41.10708 50.62336 21914 ft 425 kts 32°
2026-04-30 11:12 41.13205 50.64590 22363 ft 430 kts 32°
2026-04-30 11:12 41.15756 50.66899 22811 ft 435 kts 32°
2026-04-30 11:12 41.18297 50.69203 23269 ft 439 kts 32°
2026-04-30 11:13 41.20826 50.71501 23706 ft 442 kts 33°
2026-04-30 11:13 41.23394 50.73837 24138 ft 446 kts 33°
2026-04-30 11:13 41.25993 50.76202 24562 ft 448 kts 33°
2026-04-30 11:13 41.28582 50.78563 24975 ft 452 kts 33°
2026-04-30 11:14 41.31184 50.80940 25393 ft 455 kts 33°
2026-04-30 11:14 41.33831 50.83357 25812 ft 458 kts 33°
2026-04-30 11:14 41.36421 50.85726 26215 ft 461 kts 33°
2026-04-30 11:14 41.39079 50.88160 26614 ft 464 kts 33°
2026-04-30 11:15 41.41747 50.90605 26985 ft 465 kts 33°
2026-04-30 11:15 41.44428 50.93063 27334 ft 468 kts 33°
2026-04-30 11:15 41.47100 50.95515 27688 ft 471 kts 33°
2026-04-30 11:15 41.49829 50.98022 28048 ft 474 kts 33°
2026-04-30 11:16 41.52582 51.00557 28391 ft 476 kts 33°
2026-04-30 11:16 41.55325 51.03084 28738 ft 478 kts 33°
2026-04-30 11:16 41.58083 51.05630 29167 ft 477 kts 33°
2026-04-30 11:16 41.60848 51.08177 29619 ft 475 kts 33°
2026-04-30 11:17 41.63584 51.10698 30077 ft 475 kts 33°
2026-04-30 11:17 41.66286 51.13192 30538 ft 474 kts 33°
2026-04-30 11:17 41.69016 51.15716 31016 ft 473 kts 33°
2026-04-30 11:17 41.71714 51.18214 31486 ft 472 kts 33°
2026-04-30 11:18 41.74421 51.20724 31897 ft 471 kts 33°
2026-04-30 11:18 41.79843 51.25760 32685 ft 469 kts 33°
2026-04-30 11:18 41.82568 51.28295 33063 ft 468 kts 33°
2026-04-30 11:19 41.85245 51.30789 33401 ft 467 kts 33°
2026-04-30 11:19 41.87942 51.33305 33734 ft 467 kts 33°
2026-04-30 11:19 41.90619 51.35805 34054 ft 466 kts 33°
2026-04-30 11:19 41.93296 51.38308 34365 ft 465 kts 33°
2026-04-30 11:20 41.95928 51.40771 34652 ft 465 kts 33°
2026-04-30 11:20 41.98590 51.43264 34937 ft 464 kts 33°
2026-04-30 11:20 42.01254 51.45809 35218 ft 463 kts 36°
2026-04-30 11:20 42.03798 51.48508 35467 ft 463 kts 38°
2026-04-30 11:21 42.06259 51.51268 35604 ft 464 kts 39°
2026-04-30 11:21 42.08750 51.54100 35717 ft 466 kts 39°
2026-04-30 11:21 42.11275 51.56980 35824 ft 467 kts 39°
2026-04-30 11:21 42.13783 51.59839 35927 ft 468 kts 39°
2026-04-30 11:22 42.16285 51.62691 36037 ft 469 kts 39°
2026-04-30 11:22 42.18809 51.65569 36165 ft 469 kts 40°
2026-04-30 11:22 42.21297 51.68404 36275 ft 470 kts 40°
2026-04-30 11:22 42.23828 51.71293 36379 ft 471 kts 40°
2026-04-30 11:23 42.28896 51.77085 36581 ft 474 kts 39°
2026-04-30 11:23 42.33969 51.82894 36776 ft 475 kts 39°
2026-04-30 11:24 42.36491 51.85786 36868 ft 476 kts 39°
2026-04-30 11:24 42.41553 51.91602 37049 ft 478 kts 39°
2026-04-30 11:25 42.49251 52.00470 37101 ft 480 kts 39°
2026-04-30 11:26 42.59452 52.12266 37113 ft 481 kts 39°
2026-04-30 11:26 42.64558 52.18191 37117 ft 481 kts 39°
2026-04-30 11:27 42.69668 52.24133 37120 ft 481 kts 39°
2026-04-30 11:27 42.74803 52.30120 37121 ft 481 kts 39°
2026-04-30 11:28 42.82431 52.39037 37120 ft 481 kts 39°
2026-04-30 11:29 42.87508 52.44989 37119 ft 481 kts 40°
2026-04-30 11:29 42.95169 52.53993 37118 ft 481 kts 40°
2026-04-30 11:30 43.02785 52.62978 37116 ft 480 kts 40°
2026-04-30 11:31 43.07869 52.68991 37114 ft 480 kts 40°
2026-04-30 11:31 43.13007 52.75083 37113 ft 480 kts 40°
2026-04-30 11:32 43.18084 52.81117 37112 ft 480 kts 40°
2026-04-30 11:32 43.23181 52.87190 37111 ft 481 kts 40°
2026-04-30 11:33 43.30821 52.96315 37109 ft 481 kts 41°
2026-04-30 11:33 43.35871 53.02366 37109 ft 481 kts 41°
2026-04-30 11:34 43.40951 53.08467 37108 ft 481 kts 41°
2026-04-30 11:34 43.45987 53.14531 37107 ft 481 kts 41°
2026-04-30 11:35 43.51059 53.20653 37105 ft 481 kts 41°
2026-04-30 11:35 43.56089 53.26741 37104 ft 481 kts 41°
2026-04-30 11:36 43.61130 53.32843 37103 ft 481 kts 40°
2026-04-30 11:36 43.66165 53.38953 37103 ft 481 kts 41°
2026-04-30 11:37 43.71218 53.45105 37103 ft 481 kts 41°
2026-04-30 11:37 43.76254 53.51253 37102 ft 481 kts 41°
2026-04-30 11:38 43.81307 53.57439 37098 ft 481 kts 41°
2026-04-30 11:38 43.86330 53.63607 37092 ft 481 kts 41°
2026-04-30 11:39 43.91365 53.69792 37089 ft 481 kts 41°
2026-04-30 11:39 43.96381 53.75964 37088 ft 481 kts 41°
2026-04-30 11:40 44.01389 53.82143 37082 ft 481 kts 41°
2026-04-30 11:40 44.06409 53.88356 37076 ft 481 kts 41°
2026-04-30 11:41 44.11416 53.94569 37072 ft 481 kts 41°
2026-04-30 11:41 44.16417 54.00790 37071 ft 481 kts 41°
2026-04-30 11:42 44.21444 54.07059 37069 ft 481 kts 41°
2026-04-30 11:42 44.26460 54.13329 37069 ft 481 kts 41°
2026-04-30 11:43 44.31491 54.19632 37071 ft 481 kts 41°
2026-04-30 11:43 44.36473 54.25889 37074 ft 481 kts 42°
2026-04-30 11:44 44.41469 54.32181 37074 ft 481 kts 42°
2026-04-30 11:44 44.46455 54.38474 37075 ft 481 kts 42°
2026-04-30 11:45 44.51449 54.44791 37074 ft 481 kts 42°
2026-04-30 11:45 44.56424 54.51103 37074 ft 481 kts 42°
2026-04-30 11:46 44.61444 54.57489 37074 ft 481 kts 42°
2026-04-30 11:46 44.65889 54.63156 37073 ft 482 kts 42°
2026-04-30 11:47 44.70877 54.69515 37072 ft 482 kts 43°
2026-04-30 11:47 44.75861 54.75887 37071 ft 481 kts 43°
2026-04-30 11:48 44.80853 54.82293 37070 ft 481 kts 43°
2026-04-30 11:48 44.85794 54.88650 37068 ft 481 kts 43°
2026-04-30 11:49 44.90771 54.95069 37067 ft 482 kts 43°
2026-04-30 11:49 44.95749 55.01506 37066 ft 482 kts 43°
2026-04-30 11:50 45.00688 55.07910 37065 ft 482 kts 43°
2026-04-30 11:50 45.05664 55.14379 37064 ft 482 kts 43°
2026-04-30 11:51 45.10690 55.20667 37062 ft 483 kts 40°
2026-04-30 11:51 45.15884 55.26717 37061 ft 483 kts 40°
2026-04-30 11:52 45.21123 55.32816 37061 ft 483 kts 40°
2026-04-30 11:52 45.26321 55.38902 37061 ft 484 kts 40°
2026-04-30 11:53 45.31535 55.45032 37061 ft 484 kts 40°
2026-04-30 11:53 45.36726 55.51155 37062 ft 484 kts 40°
2026-04-30 11:54 45.41946 55.57326 37062 ft 484 kts 40°
2026-04-30 11:54 45.47137 55.63476 37062 ft 484 kts 40°
2026-04-30 11:55 45.52325 55.69637 37062 ft 484 kts 41°
2026-04-30 11:55 45.57494 55.75793 37062 ft 484 kts 41°
2026-04-30 11:56 45.62690 55.81995 37062 ft 484 kts 41°
2026-04-30 11:56 45.67879 55.88204 37061 ft 484 kts 42°
2026-04-30 11:57 45.73067 55.94429 37060 ft 484 kts 42°
2026-04-30 11:57 45.78231 56.00641 37056 ft 484 kts 42°
2026-04-30 11:58 45.83394 56.06867 37052 ft 484 kts 42°
2026-04-30 11:58 45.88553 56.13103 37045 ft 484 kts 42°
2026-04-30 11:59 45.93728 56.19375 37041 ft 485 kts 42°
2026-04-30 11:59 45.98882 56.25637 37037 ft 485 kts 42°
2026-04-30 12:00 46.04070 56.31957 37034 ft 485 kts 42°
2026-04-30 12:00 46.09204 56.38226 37039 ft 485 kts 42°
2026-04-30 12:01 46.14088 56.44205 37041 ft 485 kts 42°
2026-04-30 12:01 46.19260 56.50552 37043 ft 485 kts 42°
2026-04-30 12:02 46.24393 56.56869 37043 ft 485 kts 42°
2026-04-30 12:02 46.29560 56.63245 37043 ft 485 kts 42°
2026-04-30 12:03 46.37238 56.72753 37043 ft 484 kts 43°
2026-04-30 12:04 46.42346 56.79113 37042 ft 484 kts 44°
2026-04-30 12:04 46.47097 56.85997 37041 ft 481 kts 52°
2026-04-30 12:05 46.51144 56.93605 37039 ft 477 kts 60°
2026-04-30 12:05 46.54591 57.01785 37036 ft 475 kts 64°
2026-04-30 12:06 46.57929 57.10081 37033 ft 475 kts 64°
2026-04-30 12:06 46.61274 57.18370 37032 ft 474 kts 63°
2026-04-30 12:07 46.64606 57.26618 37029 ft 474 kts 63°
2026-04-30 12:07 46.67943 57.34889 37028 ft 474 kts 63°
2026-04-30 12:08 46.71314 57.43268 37023 ft 474 kts 63°
2026-04-30 12:08 46.74657 57.51601 37017 ft 474 kts 63°
2026-04-30 12:09 46.77983 57.59917 37013 ft 474 kts 63°
2026-04-30 12:09 46.81309 57.68257 37011 ft 473 kts 64°
2026-04-30 12:10 46.84635 57.76625 37009 ft 473 kts 64°
2026-04-30 12:10 46.87913 57.84898 37008 ft 473 kts 64°
2026-04-30 12:11 46.91211 57.93246 37007 ft 473 kts 64°
2026-04-30 12:11 46.94509 58.01618 37006 ft 473 kts 64°
2026-04-30 12:12 46.97803 58.10005 37006 ft 472 kts 64°
2026-04-30 12:12 47.00961 58.18070 37009 ft 472 kts 64°
2026-04-30 12:13 47.04242 58.26479 37017 ft 472 kts 64°
2026-04-30 12:13 47.07513 58.34889 37017 ft 472 kts 64°
2026-04-30 12:14 47.10794 58.43348 37008 ft 472 kts 64°
2026-04-30 12:14 47.14037 58.51733 37000 ft 472 kts 64°
2026-04-30 12:15 47.17278 58.60144 36981 ft 472 kts 64°
2026-04-30 12:15 47.20524 58.68593 36976 ft 473 kts 65°
2026-04-30 12:16 47.23745 58.77005 36989 ft 474 kts 65°
2026-04-30 12:16 47.26977 58.85469 36998 ft 473 kts 65°
2026-04-30 12:17 47.31801 58.98152 36999 ft 473 kts 65°
2026-04-30 12:17 47.35036 59.06693 36996 ft 473 kts 65°
2026-04-30 12:18 47.38239 59.15176 36996 ft 473 kts 65°
2026-04-30 12:18 47.41442 59.23684 36996 ft 472 kts 65°
2026-04-30 12:19 47.44623 59.32166 36996 ft 472 kts 65°
2026-04-30 12:19 47.47786 59.40625 36996 ft 472 kts 65°
2026-04-30 12:20 47.50948 59.49107 36997 ft 472 kts 65°
2026-04-30 12:20 47.54113 59.57632 36998 ft 472 kts 65°
2026-04-30 12:21 47.57272 59.66164 37000 ft 472 kts 65°
2026-04-30 12:21 47.60446 59.74757 37003 ft 472 kts 65°
2026-04-30 12:22 47.63588 59.83292 37010 ft 472 kts 65°
2026-04-30 12:22 47.66724 59.91841 37012 ft 472 kts 65°
2026-04-30 12:23 47.69868 60.00439 37004 ft 471 kts 65°
2026-04-30 12:23 47.72995 60.09022 36992 ft 471 kts 65°
2026-04-30 12:24 47.76096 60.17556 36980 ft 471 kts 65°
2026-04-30 12:24 47.79215 60.26166 36968 ft 471 kts 65°
2026-04-30 12:25 47.82304 60.34724 36963 ft 471 kts 65°
2026-04-30 12:25 47.85297 60.43044 36960 ft 471 kts 65°
2026-04-30 12:26 47.88385 60.51657 36959 ft 471 kts 65°
2026-04-30 12:26 47.91471 60.60292 36957 ft 471 kts 65°
2026-04-30 12:27 47.94553 60.68943 36956 ft 471 kts 66°
2026-04-30 12:27 47.97616 60.77576 36956 ft 471 kts 66°
2026-04-30 12:28 48.00688 60.86275 36955 ft 471 kts 66°
2026-04-30 12:28 48.03738 60.94933 36969 ft 471 kts 66°
2026-04-30 12:29 48.06789 61.03617 36972 ft 471 kts 66°
2026-04-30 12:29 48.09851 61.12358 36957 ft 472 kts 66°
2026-04-30 12:30 48.12890 61.21066 36949 ft 471 kts 66°
2026-04-30 12:30 48.15865 61.29613 36948 ft 471 kts 66°
2026-04-30 12:31 48.18893 61.38343 36954 ft 471 kts 66°
2026-04-30 12:31 48.21922 61.47107 36959 ft 471 kts 66°
2026-04-30 12:32 48.24931 61.55842 36960 ft 471 kts 66°
2026-04-30 12:32 48.27933 61.64587 36960 ft 471 kts 66°
2026-04-30 12:33 48.30940 61.73375 36960 ft 470 kts 67°
2026-04-30 12:33 48.33925 61.82128 36960 ft 470 kts 67°
2026-04-30 12:34 48.36907 61.90905 36959 ft 470 kts 67°
2026-04-30 12:34 48.39870 61.99654 36960 ft 470 kts 67°
2026-04-30 12:35 48.42852 62.08489 36960 ft 470 kts 67°
2026-04-30 12:35 48.45799 62.17252 36963 ft 470 kts 67°
2026-04-30 12:36 48.48754 62.26071 36964 ft 470 kts 67°
2026-04-30 12:36 48.51691 62.34857 36964 ft 470 kts 67°
2026-04-30 12:37 48.54633 62.43704 36965 ft 470 kts 67°
2026-04-30 12:37 48.57554 62.52512 36966 ft 470 kts 67°
2026-04-30 12:38 48.60482 62.61370 36968 ft 470 kts 67°
2026-04-30 12:38 48.63376 62.70209 36970 ft 469 kts 69°
2026-04-30 12:39 48.66078 62.79190 36972 ft 468 kts 70°
2026-04-30 12:39 48.68749 62.88205 36972 ft 468 kts 70°
2026-04-30 12:40 48.71427 62.97212 36972 ft 468 kts 70°
2026-04-30 12:40 48.74101 63.06211 36970 ft 468 kts 70°
2026-04-30 12:41 48.76769 63.15214 36968 ft 468 kts 70°
2026-04-30 12:41 48.79442 63.24271 36968 ft 468 kts 70°
2026-04-30 12:42 48.82108 63.33334 36971 ft 468 kts 70°
2026-04-30 12:42 48.84741 63.42319 36974 ft 468 kts 70°
2026-04-30 12:43 48.87395 63.51414 36974 ft 467 kts 69°
2026-04-30 12:43 48.90227 63.60309 36973 ft 469 kts 66°
2026-04-30 12:44 48.93207 63.69176 36972 ft 468 kts 66°
2026-04-30 12:44 48.96162 63.78000 36973 ft 468 kts 66°
2026-04-30 12:45 48.99069 63.86734 36975 ft 468 kts 66°
2026-04-30 12:45 49.02000 63.95580 36977 ft 468 kts 66°
2026-04-30 12:46 49.04932 64.04463 36977 ft 468 kts 66°
2026-04-30 12:46 49.07855 64.13354 36979 ft 468 kts 66°
2026-04-30 12:47 49.10773 64.22259 36979 ft 467 kts 66°
2026-04-30 12:47 49.13675 64.31139 36977 ft 467 kts 66°
2026-04-30 12:48 49.16577 64.40048 36978 ft 468 kts 66°
2026-04-30 12:48 49.19490 64.49031 36981 ft 468 kts 66°
2026-04-30 12:49 49.22374 64.57954 36982 ft 467 kts 66°
2026-04-30 12:49 49.25129 64.66505 36971 ft 467 kts 67°
2026-04-30 12:50 49.27974 64.75369 36951 ft 467 kts 67°
2026-04-30 12:50 49.30846 64.84350 36935 ft 467 kts 67°
2026-04-30 12:51 49.33709 64.93336 36931 ft 467 kts 66°
2026-04-30 12:51 49.36470 65.02309 36931 ft 466 kts 68°
2026-04-30 12:52 49.39118 65.11340 36932 ft 466 kts 68°
2026-04-30 12:52 49.41788 65.20448 36934 ft 466 kts 68°
2026-04-30 12:53 49.44423 65.29441 36935 ft 466 kts 68°
2026-04-30 12:53 49.47091 65.38565 36936 ft 466 kts 68°
2026-04-30 12:54 49.49734 65.47637 36936 ft 466 kts 68°
2026-04-30 12:54 49.52359 65.56680 36938 ft 466 kts 68°
2026-04-30 12:55 49.55004 65.65829 36941 ft 467 kts 68°
2026-04-30 12:55 49.57628 65.74937 36940 ft 466 kts 68°
2026-04-30 12:56 49.60249 65.84067 36935 ft 466 kts 68°
2026-04-30 12:56 49.62856 65.93186 36929 ft 466 kts 68°
2026-04-30 12:57 49.65462 66.02335 36927 ft 467 kts 68°
2026-04-30 12:57 49.68065 66.11509 36926 ft 467 kts 68°
2026-04-30 12:58 49.70651 66.20657 36925 ft 467 kts 68°
2026-04-30 12:58 49.73235 66.29837 36924 ft 467 kts 68°
2026-04-30 12:59 49.75851 66.39028 36927 ft 467 kts 67°
2026-04-30 12:59 49.78515 66.48188 36932 ft 467 kts 67°
2026-04-30 13:00 49.81170 66.57365 36936 ft 467 kts 67°
2026-04-30 13:00 49.83799 66.66497 36942 ft 467 kts 68°
2026-04-30 13:01 49.86422 66.75651 36948 ft 466 kts 68°
2026-04-30 13:01 49.89045 66.84845 36953 ft 466 kts 68°
2026-04-30 13:02 49.91650 66.94012 36954 ft 466 kts 68°
2026-04-30 13:02 49.94247 67.03188 36956 ft 465 kts 68°
2026-04-30 13:03 49.96804 67.12371 36957 ft 464 kts 70°
2026-04-30 13:03 49.99014 67.21794 36958 ft 463 kts 72°
2026-04-30 13:04 50.01123 67.31165 36960 ft 463 kts 72°
2026-04-30 13:04 50.03241 67.40583 36975 ft 463 kts 72°
2026-04-30 13:05 50.05367 67.50058 36977 ft 465 kts 72°
2026-04-30 13:06 50.08549 67.64301 36957 ft 465 kts 72°
2026-04-30 13:06 50.10654 67.73779 36955 ft 464 kts 72°
2026-04-30 13:07 50.12753 67.83273 36955 ft 463 kts 72°
2026-04-30 13:07 50.14851 67.92799 36960 ft 463 kts 72°
2026-04-30 13:08 50.16925 68.02265 36971 ft 462 kts 72°
2026-04-30 13:08 50.18986 68.11708 36984 ft 462 kts 72°
2026-04-30 13:09 50.21053 68.21220 36989 ft 462 kts 72°
2026-04-30 13:09 50.23161 68.30622 36990 ft 462 kts 70°
2026-04-30 13:10 50.25474 68.39975 36988 ft 463 kts 69°
2026-04-30 13:10 50.27800 68.49355 36985 ft 463 kts 69°
2026-04-30 13:11 50.30108 68.58731 36984 ft 464 kts 69°
2026-04-30 13:11 50.32419 68.68173 36984 ft 464 kts 70°
2026-04-30 13:12 50.34714 68.77593 36985 ft 465 kts 70°
2026-04-30 13:12 50.37001 68.87020 36986 ft 465 kts 70°
2026-04-30 13:13 50.40432 69.01241 36990 ft 465 kts 70°
2026-04-30 13:14 50.43845 69.15473 36993 ft 465 kts 70°
2026-04-30 13:14 50.46971 69.28602 36996 ft 465 kts 70°
2026-04-30 13:15 50.50351 69.42893 36997 ft 465 kts 70°
2026-04-30 13:16 50.52610 69.52491 37023 ft 469 kts 69°
2026-04-30 13:16 50.54872 69.62150 37135 ft 473 kts 69°
2026-04-30 13:17 50.57141 69.71880 37361 ft 473 kts 70°
2026-04-30 13:17 50.58275 69.76759 37479 ft 473 kts 70°
2026-04-30 13:17 50.60522 69.86466 37729 ft 473 kts 70°
2026-04-30 13:18 50.61636 69.91288 37849 ft 473 kts 70°
2026-04-30 13:18 50.63875 70.01022 38086 ft 473 kts 70°
2026-04-30 13:18 50.65002 70.05939 38203 ft 473 kts 70°
2026-04-30 13:19 50.66114 70.10802 38315 ft 473 kts 70°
2026-04-30 13:19 50.67227 70.15681 38425 ft 473 kts 70°
2026-04-30 13:19 50.69570 70.25384 38623 ft 472 kts 67°
2026-04-30 13:20 50.70837 70.30179 38732 ft 472 kts 66°
2026-04-30 13:20 50.72106 70.34943 38839 ft 472 kts 66°
2026-04-30 13:20 50.73365 70.39676 38940 ft 471 kts 66°
2026-04-30 13:20 50.74638 70.44477 39013 ft 472 kts 66°
2026-04-30 13:21 50.77180 70.54120 39041 ft 472 kts 66°
2026-04-30 13:22 50.80938 70.68471 39033 ft 472 kts 67°
2026-04-30 13:22 50.84685 70.82877 39013 ft 472 kts 67°
2026-04-30 13:23 50.88437 70.97394 39013 ft 473 kts 67°
2026-04-30 13:24 50.93413 71.16790 39014 ft 472 kts 67°
2026-04-30 13:25 50.98344 71.36180 39011 ft 472 kts 67°
2026-04-30 13:26 51.03242 71.61140 39012 ft 473 kts 73°
2026-04-30 13:28 51.07544 71.86446 39020 ft 473 kts 74°
2026-04-30 13:28 51.10103 72.01620 39025 ft 473 kts 74°
2026-04-30 13:29 51.13495 72.21934 39016 ft 473 kts 74°
2026-04-30 13:31 51.17670 72.47261 39031 ft 473 kts 74°
2026-04-30 13:32 51.21805 72.72726 39031 ft 473 kts 75°
2026-04-30 13:33 51.25050 72.92999 39041 ft 473 kts 75°
2026-04-30 13:34 51.27478 73.08339 39055 ft 473 kts 75°
2026-04-30 13:35 51.30664 73.28680 39060 ft 472 kts 75°
2026-04-30 13:36 51.33840 73.49209 39024 ft 472 kts 74°
2026-04-30 13:36 51.36178 73.64486 39011 ft 472 kts 74°
2026-04-30 13:37 51.38500 73.79802 39023 ft 472 kts 75°
2026-04-30 13:38 51.40808 73.95181 39028 ft 472 kts 75°
2026-04-30 13:39 51.43834 74.15565 39023 ft 471 kts 75°
2026-04-30 13:40 51.46095 74.30979 39013 ft 470 kts 75°
2026-04-30 13:40 51.47577 74.41166 39016 ft 470 kts 75°
2026-04-30 13:41 51.49063 74.51450 39018 ft 470 kts 75°
2026-04-30 13:41 51.50532 74.61683 39018 ft 470 kts 75°
2026-04-30 13:42 51.51990 74.71901 39018 ft 470 kts 76°
2026-04-30 13:42 51.54161 74.87247 39018 ft 470 kts 76°
2026-04-30 13:43 51.55608 74.97562 39022 ft 470 kts 76°
2026-04-30 13:43 51.57044 75.07867 39042 ft 469 kts 76°
2026-04-30 13:44 51.58478 75.18243 39070 ft 469 kts 76°
2026-04-30 13:44 51.59524 75.28614 39088 ft 470 kts 81°
2026-04-30 13:45 51.60706 75.44329 39102 ft 470 kts 82°
2026-04-30 13:46 51.61483 75.54776 39104 ft 469 kts 82°
2026-04-30 13:46 51.62265 75.65331 39104 ft 469 kts 82°
2026-04-30 13:47 51.63030 75.75776 39106 ft 469 kts 82°
2026-04-30 13:47 51.63784 75.86204 39106 ft 469 kts 82°
2026-04-30 13:48 51.64533 75.96687 39105 ft 469 kts 82°
2026-04-30 13:48 51.65270 76.07130 39102 ft 469 kts 82°
2026-04-30 13:49 51.65998 76.17582 39099 ft 468 kts 82°
2026-04-30 13:49 51.66717 76.28042 39092 ft 467 kts 82°
2026-04-30 13:50 51.67423 76.38451 39090 ft 467 kts 82°
2026-04-30 13:50 51.68473 76.54179 39087 ft 468 kts 82°
2026-04-30 13:51 51.69062 76.63157 39087 ft 468 kts 82°
2026-04-30 13:51 51.69741 76.73611 39086 ft 468 kts 83°
2026-04-30 13:52 51.70415 76.84162 39087 ft 467 kts 83°
2026-04-30 13:52 51.71070 76.94591 39088 ft 468 kts 83°
2026-04-30 13:53 51.71724 77.05087 39090 ft 468 kts 83°
2026-04-30 13:53 51.72365 77.15584 39092 ft 468 kts 83°
2026-04-30 13:54 51.72996 77.26086 39096 ft 468 kts 83°
2026-04-30 13:54 51.73623 77.36674 39098 ft 468 kts 83°
2026-04-30 13:55 51.74239 77.47221 39100 ft 468 kts 82°
2026-04-30 13:55 51.74839 77.57652 39102 ft 468 kts 82°
2026-04-30 13:56 51.75434 77.68143 39104 ft 468 kts 83°
2026-04-30 13:56 51.76020 77.78659 39107 ft 468 kts 83°
2026-04-30 13:57 51.76591 77.89105 39106 ft 468 kts 83°
2026-04-30 13:57 51.77155 77.99646 39104 ft 468 kts 83°
2026-04-30 13:58 51.77984 78.15447 39099 ft 468 kts 83°
2026-04-30 13:59 51.78529 78.26047 39098 ft 468 kts 83°
2026-04-30 13:59 51.79062 78.36567 39095 ft 468 kts 83°
2026-04-30 14:00 51.79588 78.47102 39094 ft 468 kts 83°
2026-04-30 14:00 51.80355 78.62872 39090 ft 468 kts 83°
2026-04-30 14:01 51.80854 78.73392 39088 ft 468 kts 84°
2026-04-30 14:01 51.81345 78.83933 39088 ft 469 kts 84°
2026-04-30 14:02 51.81825 78.94461 39090 ft 469 kts 84°
2026-04-30 14:02 51.82298 79.05035 39093 ft 469 kts 84°
2026-04-30 14:03 51.82760 79.15617 39097 ft 469 kts 84°
2026-04-30 14:03 51.83398 79.26160 39094 ft 467 kts 79°
2026-04-30 14:04 51.84634 79.36526 39094 ft 466 kts 75°
2026-04-30 14:04 51.85985 79.46822 39094 ft 466 kts 75°
2026-04-30 14:05 51.87335 79.57211 39097 ft 466 kts 75°
2026-04-30 14:05 51.88660 79.67540 39100 ft 466 kts 76°
2026-04-30 14:06 51.90629 79.83067 39106 ft 466 kts 76°
2026-04-30 14:07 51.92569 79.98546 39108 ft 466 kts 76°
2026-04-30 14:08 51.94490 80.14047 39108 ft 466 kts 76°
2026-04-30 14:08 51.96398 80.29626 39107 ft 466 kts 76°
2026-04-30 14:09 51.97650 80.39951 39105 ft 466 kts 76°
2026-04-30 14:10 51.99526 80.55566 39105 ft 467 kts 76°
2026-04-30 14:10 52.00769 80.66022 39106 ft 467 kts 77°
2026-04-30 14:11 52.01999 80.76456 39122 ft 467 kts 77°
2026-04-30 14:11 52.03216 80.86857 39139 ft 468 kts 77°
2026-04-30 14:12 52.04433 80.97348 39131 ft 468 kts 77°
2026-04-30 14:12 52.05640 81.07829 39119 ft 469 kts 77°
2026-04-30 14:13 52.06842 81.18366 39116 ft 469 kts 77°
2026-04-30 14:13 52.08030 81.28835 39113 ft 469 kts 77°
2026-04-30 14:14 52.09215 81.39387 39110 ft 470 kts 77°
2026-04-30 14:15 52.11494 81.59940 39109 ft 470 kts 77°
2026-04-30 14:15 52.12609 81.70120 39109 ft 470 kts 78°
2026-04-30 14:16 52.13757 81.80697 39111 ft 471 kts 78°
2026-04-30 14:16 52.14890 81.91237 39113 ft 471 kts 78°
2026-04-30 14:17 52.16024 82.01875 39116 ft 471 kts 78°
2026-04-30 14:17 52.17145 82.12455 39120 ft 471 kts 78°
2026-04-30 14:18 52.18258 82.23067 39125 ft 471 kts 78°
2026-04-30 14:18 52.20083 82.40697 39133 ft 471 kts 78°
2026-04-30 14:19 52.21524 82.54822 39139 ft 471 kts 78°
2026-04-30 14:20 52.22590 82.65385 39142 ft 471 kts 78°
2026-04-30 14:20 52.24180 82.81320 39151 ft 471 kts 78°
2026-04-30 14:21 52.25232 82.91971 39152 ft 471 kts 78°
2026-04-30 14:22 52.26786 83.07907 39153 ft 471 kts 78°
2026-04-30 14:22 52.28312 83.23792 39153 ft 470 kts 78°
2026-04-30 14:23 52.30319 83.45066 39148 ft 470 kts 78°
2026-04-30 14:24 52.31778 83.60810 39145 ft 470 kts 78°
2026-04-30 14:25 52.33709 83.81995 39147 ft 469 kts 79°
2026-04-30 14:26 52.35137 83.97961 39154 ft 469 kts 79°
2026-04-30 14:27 52.36542 84.13919 39160 ft 469 kts 79°
2026-04-30 14:27 52.37461 84.24497 39164 ft 469 kts 79°
2026-04-30 14:28 52.38829 84.40466 39174 ft 469 kts 79°
2026-04-30 14:28 52.39878 84.52879 39177 ft 469 kts 79°
2026-04-30 14:29 52.41492 84.72310 39180 ft 469 kts 79°
2026-04-30 14:31 52.43652 84.98924 39176 ft 469 kts 79°
2026-04-30 14:31 52.45057 85.16688 39173 ft 469 kts 79°
2026-04-30 14:32 52.46232 85.30925 39172 ft 467 kts 76°
2026-04-30 14:33 52.47702 85.41268 39169 ft 464 kts 70°
2026-04-30 14:33 52.51466 85.57836 39169 ft 461 kts 64°
2026-04-30 14:34 52.53473 85.66015 39169 ft 461 kts 65°
2026-04-30 14:34 52.55869 85.75867 39172 ft 461 kts 65°
2026-04-30 14:35 52.59440 85.90678 39177 ft 462 kts 65°
2026-04-30 14:36 52.61801 86.00530 39182 ft 462 kts 65°
2026-04-30 14:36 52.64165 86.10441 39184 ft 461 kts 65°
2026-04-30 14:37 52.66519 86.20356 39191 ft 461 kts 65°
2026-04-30 14:37 52.68860 86.30259 39195 ft 461 kts 65°
2026-04-30 14:38 52.71196 86.40192 39197 ft 461 kts 65°
2026-04-30 14:38 52.73531 86.50164 39201 ft 461 kts 65°
2026-04-30 14:39 52.75846 86.60165 39205 ft 461 kts 66°
2026-04-30 14:39 52.78045 86.70200 39207 ft 461 kts 67°
2026-04-30 14:40 52.81311 86.85256 39209 ft 461 kts 66°
2026-04-30 14:40 52.83490 86.95335 39209 ft 461 kts 66°
2026-04-30 14:41 52.85660 87.05414 39209 ft 461 kts 66°
2026-04-30 14:41 52.87817 87.15482 39210 ft 461 kts 66°
2026-04-30 14:42 52.90327 87.27255 39210 ft 461 kts 66°
2026-04-30 14:42 52.92110 87.35666 39209 ft 461 kts 66°
2026-04-30 14:43 52.94249 87.45798 39209 ft 461 kts 66°
2026-04-30 14:43 52.96730 87.57617 39209 ft 461 kts 66°
2026-04-30 14:44 52.98505 87.66116 39209 ft 461 kts 67°
2026-04-30 14:44 53.00605 87.76211 39211 ft 461 kts 67°
2026-04-30 14:45 53.02703 87.86354 39214 ft 461 kts 67°
2026-04-30 14:45 53.04783 87.96459 39216 ft 461 kts 67°
2026-04-30 14:46 53.06870 88.06654 39219 ft 461 kts 67°
2026-04-30 14:46 53.08941 88.16813 39220 ft 461 kts 67°
2026-04-30 14:47 53.11013 88.27029 39223 ft 461 kts 67°
2026-04-30 14:47 53.13412 88.38931 39219 ft 461 kts 67°
2026-04-30 14:48 53.15115 88.47427 39214 ft 461 kts 67°
2026-04-30 14:48 53.17164 88.57692 39210 ft 461 kts 67°
2026-04-30 14:49 53.19202 88.67962 39208 ft 461 kts 68°
2026-04-30 14:49 53.21213 88.78149 39209 ft 462 kts 68°
2026-04-30 14:50 53.24238 88.93595 39215 ft 462 kts 68°
2026-04-30 14:51 53.27459 89.08824 39225 ft 461 kts 66°
2026-04-30 14:52 53.30783 89.24044 39234 ft 461 kts 66°
2026-04-30 14:52 53.33830 89.38207 39187 ft 461 kts 66°
2026-04-30 14:53 53.36002 89.48383 38956 ft 461 kts 66°
2026-04-30 14:53 53.37089 89.53496 38821 ft 461 kts 66°
2026-04-30 14:54 53.39236 89.63626 38658 ft 460 kts 66°
2026-04-30 14:54 53.41389 89.73844 38524 ft 461 kts 66°
2026-04-30 14:55 53.43530 89.84061 38403 ft 461 kts 66°
2026-04-30 14:55 53.44597 89.89173 38371 ft 461 kts 66°
2026-04-30 14:55 53.47075 90.01092 38254 ft 462 kts 66°
2026-04-30 14:56 53.48851 90.09679 38232 ft 462 kts 66°
2026-04-30 14:56 53.50967 90.20010 38390 ft 461 kts 67°
2026-04-30 14:57 53.51994 90.25125 38521 ft 460 kts 67°
2026-04-30 14:57 53.54046 90.35406 38795 ft 457 kts 67°
2026-04-30 14:58 53.56076 90.45602 39024 ft 457 kts 67°
2026-04-30 14:58 53.59126 90.61027 39168 ft 462 kts 67°
2026-04-30 15:00 53.64225 90.86561 39175 ft 462 kts 67°
2026-04-30 15:01 53.68348 91.07295 39230 ft 462 kts 67°
2026-04-30 15:01 53.71751 91.24603 39234 ft 461 kts 67°
2026-04-30 15:02 53.73436 91.33259 39234 ft 461 kts 68°
2026-04-30 15:03 53.76762 91.60125 39238 ft 465 kts 75°
2026-04-30 15:04 53.80768 91.86689 39241 ft 461 kts 68°
2026-04-30 15:06 53.85547 92.12816 39232 ft 461 kts 68°
2026-04-30 15:07 53.89343 92.33907 39230 ft 461 kts 68°
2026-04-30 15:08 53.93037 92.54687 39226 ft 462 kts 68°
2026-04-30 15:09 53.97648 92.80943 39222 ft 462 kts 69°
2026-04-30 15:10 54.01295 93.02001 39209 ft 462 kts 69°
2026-04-30 15:11 54.06710 93.33757 39207 ft 465 kts 69°
2026-04-30 15:13 54.10757 93.60543 39206 ft 470 kts 78°
2026-04-30 15:14 54.10225 93.83031 39215 ft 477 kts 99°
2026-04-30 15:14 54.08008 93.99648 39259 ft 476 kts 99°
2026-04-30 15:16 54.04274 94.27241 38973 ft 476 kts 99°
2026-04-30 15:17 54.01272 94.49241 39123 ft 476 kts 99°
2026-04-30 15:19 53.95134 94.93244 39142 ft 476 kts 100°